User: anonymous   Login
Location: Igri�s
(42.2144°N, 0.4320°W)
Time: 12:29:54
(UTC+00:00)
Language:

Cosmos 841 Rocket - Orbit

View from above orbital plane
View from above orbital plane
View from above satellite
View from above satellite

Ground track
Ground track

The orbit data is extracted from the following two-line orbital elements,

1  9023U 76069B   20293.93857550 +.00000036 +00000-0 +19842-4 0  9997
2  9023 074.0452 003.5522 0018431 230.2777 129.6754 14.39662225320201
Epoch (UTC): 19 October 2020 22:31:32
Eccentricity: 0.0018431
inclination: 74.0452°
perigee height: 746 km
apogee height: 773 km
right ascension of ascending node: 3.5522°
argument of perigee: 230.2777°
revolutions per day: 14.39662225
mean anomaly at epoch: 129.6754°
orbit number at epoch: 32020

The dashed part of the orbit path shows where the satellite is in the earth's shadow,  

DLR